Home > Weather > Tönisvorst > Past weeks

Flag for Germany Past Weather in Tönisvorst, North Rhine-Westphalia, Germany — Yesterday and Last 2 Weeks

Now
79 °F

Passing clouds.


Feels Like: 81 °F
Forecast: 59 / 75 °F
Wind: 7 mph from West

Location: Monchengladbach Airport

Current Time: Jul 25, 2016 at 6:03:23 PM

Latest Report: Jul 25, 2016 at 5:20 PM


Visibility: N/A

Pressure: 30.07 "Hg

Humidity: 61%

Dew Point: 64 °F

Location of TönisvorstLocation

Past Weather in Tönisvorst — Graph

°F

Tönisvorst Temperature Yesterday

Maximum temperature yesterday: 82 °F (at 6:50 PM)
Minimum temperature yesterday: 66 °F (at 7:50 AM)
Average temperature yesterday: 74 °F

High & Low Weather Summary for the Past Weeks

 TemperatureHumidityPressure
High95 °F (Jul 20, 4:50 PM)100% (Jul 24, 7:50 AM)30.30 "Hg (Jul 24, 7:50 AM)
Low54 °F (Jul 15, 6:50 AM)30% (Jul 20, 4:50 PM)29.77 "Hg (Jul 10, 5:50 PM)
Average73 °F61%30.05 "Hg
* Reported Jul 10 4:20 PM — Jul 25 4:50 PM, Tönisvorst, Weather by CustomWeather, © 2016

Note: Actual official high and low records may vary slightly from our data, if they occured in-between our weather recording intervals... More about our weather records

Advertising

Tönisvorst Weather History for the Previous 24 Hours

Scroll right to see more
 ConditionsComfort  
Time TempWeatherWind HumidityBarometerVisibility
4:50 PM
Mon, Jul 25
77 °FPassing clouds.8 mph61%30.07 "HgN/A
4:20 PM77 °FPassing clouds.7 mph61%30.09 "HgN/A
3:50 PM77 °FPassing clouds.7 mph65%30.09 "HgN/A
3:20 PM77 °FPassing clouds.8 mph65%30.09 "HgN/A
2:50 PM77 °FPassing clouds.8 mph61%30.09 "HgN/A
2:20 PM77 °FPartly cloudy.9 mph61%30.09 "HgN/A
1:50 PM79 °FPartly cloudy.8 mph58%30.09 "HgN/A
1:20 PM79 °FScattered clouds.8 mph58%30.09 "HgN/A
12:50 PM77 °FScattered clouds.6 mph61%30.09 "HgN/A
12:20 PM77 °FScattered clouds.6 mph65%30.09 "HgN/A
11:50 AM73 °FScattered clouds.6 mph69%30.09 "HgN/A
11:20 AM72 °FPartly sunny.7 mph69%30.09 "HgN/A
10:50 AM73 °FScattered clouds.6 mph69%30.09 "HgN/A
10:20 AM73 °FScattered clouds.6 mph69%30.09 "HgN/A
9:50 AM73 °FSunny.5 mph69%30.09 "Hg10 mi
9:20 AM72 °FPassing clouds.6 mph69%30.09 "HgN/A
8:50 AM70 °FPassing clouds.6 mph69%30.09 "HgN/A
8:20 AM68 °FPassing clouds.5 mph78%30.09 "HgN/A
7:50 AM66 °FSunny.2 mph88%30.09 "Hg10 mi
7:50 PM
Sun, Jul 24
79 °FClear.3 mph51%30.07 "Hg10 mi
7:20 PM79 °FPassing clouds.5 mph51%30.07 "HgN/A
6:50 PM82 °FClear.2 mph48%30.07 "Hg10 mi
6:20 PM81 °FClear.3 mph51%30.07 "Hg10 mi
Weather by CustomWeather, © 2016

See weather overviewHow to use our weather pages